Regional Weather Roundup
Issued by NWS Huntsville, AL

Home | Current Version | Previous Version | Text Only | Print | Product List | Glossary On
Versions: 1 2 3 4 5 6 7 8 9 10 11 12 13 14 15 16 17 18 19 20 21 22 23 24 25 26 27 28
000
ASUS44 KHUN 281010
RWRHUN

WEATHER ROUNDUP FOR THE TENNESSEE VALLEY
NATIONAL WEATHER SERVICE HUNTSVILLE AL
400 AM CST TUE FEB 28 2017

ALZ001>004-281100-
NORTHWEST ALABAMA

CITY           SKY/WX    TMP DP  RH WIND       PRES   REMARKS
SHOALS AIRPORT   N/A    N/A N/A N/A MISG      30.15S
$$

ALZ005>007-016-281100-
NORTH CENTRAL ALABAMA

CITY           SKY/WX    TMP DP  RH WIND       PRES   REMARKS
DECATUR AP     CLOUDY    55  55 100 SE10      30.19S
HUNTSVILLE AP  CLOUDY    55  54  96 S12       30.19S
MERIDIANVILLE  CLOUDY    52  48  87 SE9       30.19S
REDSTONE ARSN  CLOUDY    53  52  95 S8        30.19S
VINEMONT AP    FOG       53  52  98 S9        30.22F VSB 1
$$

ALZ008>010-281100-
NORTHEAST ALABAMA

CITY           SKY/WX    TMP DP  RH WIND       PRES   REMARKS
ALBERTVILLE    FOG       52  52 100 SE6       30.22F VSB 1/2
FORT PAYNE     CLOUDY    52  46  82 CALM      30.24R
SCOTTSBORO AP  CLOUDY    54  54 100 SW5       30.24F
SCOTTSBORO HCN   N/A     50 N/A N/A MISG        N/A
VALLEY HEAD      N/A     52 N/A N/A MISG        N/A
$$

TNZ076-096-097-281100-
SOUTHEASTERN MIDDLE TENNESSEE

CITY           SKY/WX    TMP DP  RH WIND       PRES   REMARKS
TULLAHOMA      PTCLDY    50  48  93 S9        30.17F
WINCHESTER     MOCLDY    52  50  93 S10       30.19S
$$

...SURROUNDING SITES...

CITY           SKY/WX    TMP DP  RH WIND       PRES   REMARKS
ATLANTA        MOCLDY    52  46  80 E6        30.27S
ANNISTON       CLOUDY    54  52  93 NE5       30.25R
BIRMINGHAM     CLOUDY    56  56 100 VRB3      30.24F
CHATTANOOGA    CLOUDY    48  45  89 W3        30.25R
CORINTH        CLOUDY    59  55  88 S10G17    30.07F
DALTON         CLOUDY    50  48  93 CALM      30.25S
GADSDEN        CLOUDY    51  50  96 CALM      30.26R FOG
GOLDEN TRNGL   CLOUDY    59  54  82 S14       30.10S
HALEYVILLE     LGT RAIN  56  55  97 S12G20    30.18F
JACKSON TN     CLOUDY    60  57  89 S15G24    30.03F
MEMPHIS        CLOUDY    63  60  90 S15       30.02F
NASHVILLE      CLOUDY    55  50  83 S12       30.11F
OXFORD MS      LGT RAIN  57  57 100 S10       30.09S
ROME           CLOUDY    50  46  86 CALM      30.26R
SAVANNAH       CLOUDY    57  55  94 S9        30.08F
TUPELO         CLOUDY    59  56  89 SE12      30.10F
TUSCALOOSA     CLOUDY    59  57  93 SE3       30.19S
$$

...GULF COAST WEATHER...

CITY           SKY/WX    TMP DP  RH WIND       PRES   REMARKS
GULFPORT       FOG       68  68 100 SE8       30.11F VSB 1/2
PASCAGOULA     CLOUDY    69  66  90 SE8       30.13F FOG
MOBILE         CLOUDY    64  63  96 SE7       30.16S FOG
GULF SHORES    CLOUDY    67  67 100 E7        30.16R
PENSACOLA      CLOUDY    67  65  93 E13       30.16F
DESTIN         CLOUDY    66  65  96 E5        30.19S
PANAMA CITY    CLOUDY    63  60  90 E5        30.21R
APPALACHICOLA  CLOUDY    65  65 100 E7        30.21R FOG
$$





USA.gov is the U.S. government's official web portal to all federal, state and local government web resources and services.